TimeCST,TemperatureF,Dew PointF,Humidity,Sea Level PressureIn,VisibilityMPH,Wind Direction,Wind SpeedMPH,Gust SpeedMPH,PrecipitationIn,Events,Conditions,WindDirDegrees,DateUTC
12:15 AM,-13.9,-18.4,80,30.25,10.0,Calm,Calm,-,N/A,,Clear,0,2013-01-26 06:15:00
12:35 AM,-14.6,-18.9,81,30.24,10.0,Calm,Calm,-,N/A,,Clear,0,2013-01-26 06:35:00
12:55 AM,-13.9,-18.2,81,30.24,10.0,Calm,Calm,-,N/A,,Clear,0,2013-01-26 06:55:00
1:15 AM,-14.1,-18.6,80,30.24,10.0,Calm,Calm,-,N/A,,Clear,0,2013-01-26 07:15:00
1:35 AM,-14.3,-18.9,79,30.24,10.0,Calm,Calm,-,N/A,,Clear,0,2013-01-26 07:35:00
1:55 AM,-15.0,-19.5,80,30.23,10.0,Calm,Calm,-,N/A,,Clear,0,2013-01-26 07:55:00
2:15 AM,-14.6,-19.3,79,30.22,10.0,Calm,Calm,-,N/A,,Clear,0,2013-01-26 08:15:00
2:35 AM,-15.2,-19.8,79,30.22,10.0,Calm,Calm,-,N/A,,Scattered Clouds,0,2013-01-26 08:35:00
2:55 AM,-15.2,-20.0,79,30.21,10.0,Calm,Calm,-,N/A,,Overcast,0,2013-01-26 08:55:00
3:15 AM,-14.6,-19.3,79,30.21,10.0,Calm,Calm,-,N/A,,Overcast,0,2013-01-26 09:15:00
3:35 AM,-12.8,-17.3,80,30.21,10.0,Calm,Calm,-,N/A,,Overcast,0,2013-01-26 09:35:00
3:55 AM,-10.3,-14.8,81,30.21,10.0,Calm,Calm,-,N/A,,Overcast,0,2013-01-26 09:55:00
4:15 AM,-9.4,-14.1,80,30.21,10.0,South,3.5,-,N/A,,Overcast,170,2013-01-26 10:15:00
4:35 AM,-9.4,-14.1,80,30.21,10.0,Calm,Calm,-,N/A,,Overcast,0,2013-01-26 10:35:00
4:55 AM,-8.7,-13.4,80,30.20,10.0,South,3.5,-,N/A,,Overcast,180,2013-01-26 10:55:00
5:15 AM,-8.3,-13.0,80,30.20,10.0,SSE,3.5,-,N/A,,Overcast,160,2013-01-26 11:15:00
5:35 AM,-8.1,-12.8,80,30.20,10.0,Calm,Calm,-,N/A,,Overcast,0,2013-01-26 11:35:00
5:55 AM,-7.4,-12.3,79,30.20,10.0,SSE,3.5,-,N/A,,Overcast,160,2013-01-26 11:55:00
6:15 AM,-7.1,-11.9,79,30.20,10.0,SSE,3.5,-,N/A,,Overcast,160,2013-01-26 12:15:00
6:35 AM,-6.0,-10.7,80,30.20,10.0,SSE,4.6,-,N/A,,Overcast,150,2013-01-26 12:35:00
6:55 AM,-4.7,-9.4,80,30.20,10.0,SE,5.8,-,N/A,,Overcast,130,2013-01-26 12:55:00
7:15 AM,-3.6,-8.5,80,30.19,10.0,SE,8.1,-,N/A,,Overcast,140,2013-01-26 13:15:00
7:35 AM,-2.9,-7.8,80,30.19,10.0,SE,8.1,-,N/A,,Overcast,140,2013-01-26 13:35:00
7:55 AM,-2.2,-7.1,80,30.19,10.0,SE,6.9,-,N/A,,Overcast,140,2013-01-26 13:55:00
8:15 AM,-1.1,-6.0,80,30.18,10.0,SSE,9.2,-,N/A,,Overcast,150,2013-01-26 14:15:00
8:35 AM,-0.4,-5.4,79,30.18,10.0,SSE,9.2,-,N/A,,Overcast,150,2013-01-26 14:35:00
8:55 AM,0.1,-4.9,79,30.17,10.0,SE,9.2,-,N/A,,Overcast,140,2013-01-26 14:55:00
9:15 AM,0.3,-4.9,79,30.17,10.0,SSE,10.4,-,N/A,,Overcast,150,2013-01-26 15:15:00
9:35 AM,1.0,-4.4,78,30.17,10.0,SSE,10.4,-,N/A,,Overcast,150,2013-01-26 15:35:00
9:55 AM,1.9,-3.8,77,30.17,10.0,SSE,10.4,-,N/A,,Overcast,150,2013-01-26 15:55:00
10:15 AM,2.8,-3.3,76,30.17,10.0,SSE,11.5,-,N/A,,Overcast,160,2013-01-26 16:15:00
10:35 AM,3.7,-2.7,74,30.16,10.0,SSE,11.5,-,N/A,,Overcast,160,2013-01-26 16:35:00
10:55 AM,4.6,-2.2,73,30.16,10.0,SSE,10.4,-,N/A,,Overcast,150,2013-01-26 16:55:00
11:15 AM,5.5,-1.8,72,30.16,10.0,SSE,10.4,-,N/A,,Overcast,150,2013-01-26 17:15:00
11:35 AM,6.3,-1.7,70,30.15,10.0,SSE,11.5,-,N/A,,Overcast,150,2013-01-26 17:35:00
11:55 AM,7.0,-1.1,69,30.14,10.0,SE,10.4,-,N/A,,Overcast,130,2013-01-26 17:55:00
12:15 PM,7.5,-0.8,69,30.13,10.0,SE,11.5,-,N/A,,Overcast,140,2013-01-26 18:15:00
12:35 PM,8.4,-0.2,68,30.12,10.0,SSE,10.4,-,N/A,,Overcast,150,2013-01-26 18:35:00
12:55 PM,9.0,0.1,67,30.11,10.0,SE,11.5,-,N/A,,Overcast,130,2013-01-26 18:55:00
1:15 PM,9.0,0.5,69,30.09,10.0,SE,12.7,-,N/A,,Overcast,130,2013-01-26 19:15:00
1:35 PM,9.5,0.5,67,30.09,10.0,SE,10.4,-,N/A,,Overcast,130,2013-01-26 19:35:00
1:55 PM,10.4,0.9,65,30.09,10.0,SE,11.5,-,N/A,,Overcast,140,2013-01-26 19:55:00
2:15 PM,11.1,1.4,65,30.07,10.0,SE,11.5,-,N/A,,Overcast,140,2013-01-26 20:15:00
2:35 PM,11.7,1.6,64,30.07,10.0,SE,12.7,-,N/A,,Overcast,140,2013-01-26 20:35:00
2:55 PM,12.0,1.2,62,30.06,10.0,SE,11.5,-,N/A,,Overcast,140,2013-01-26 20:55:00
3:15 PM,12.6,1.6,62,30.05,10.0,SE,12.7,-,N/A,,Scattered Clouds,140,2013-01-26 21:15:00
3:35 PM,13.3,2.3,62,30.05,10.0,SE,10.4,-,N/A,,Clear,140,2013-01-26 21:35:00
3:55 PM,13.8,2.3,60,30.04,10.0,SSE,10.4,-,N/A,,Clear,150,2013-01-26 21:55:00
4:15 PM,13.5,2.1,61,30.05,10.0,SE,10.4,-,N/A,,Scattered Clouds,140,2013-01-26 22:15:00
4:35 PM,13.1,2.1,62,30.04,10.0,SSE,10.4,-,N/A,,Overcast,150,2013-01-26 22:35:00
4:55 PM,13.1,1.9,61,30.04,10.0,SE,11.5,-,N/A,,Overcast,140,2013-01-26 22:55:00
5:15 PM,12.9,1.9,62,30.02,10.0,SSE,12.7,-,N/A,,Overcast,150,2013-01-26 23:15:00
5:35 PM,12.6,2.1,63,30.03,10.0,SE,10.4,-,N/A,,Mostly Cloudy,140,2013-01-26 23:35:00
5:55 PM,12.2,1.8,63,30.04,10.0,SE,6.9,-,N/A,,Clear,140,2013-01-26 23:55:00
6:15 PM,11.7,1.8,65,30.03,10.0,SSE,10.4,-,N/A,,Clear,150,2013-01-27 00:15:00
6:35 PM,12.0,1.9,64,30.03,10.0,SSE,10.4,-,N/A,,Clear,160,2013-01-27 00:35:00
6:55 PM,12.2,2.1,64,30.03,10.0,SSE,9.2,-,N/A,,Clear,150,2013-01-27 00:55:00
7:15 PM,11.8,1.9,65,30.03,10.0,SSE,9.2,-,N/A,,Clear,160,2013-01-27 01:15:00
7:35 PM,11.3,1.6,65,30.04,10.0,SSE,8.1,-,N/A,,Clear,160,2013-01-27 01:35:00
7:55 PM,10.9,1.4,65,30.03,10.0,SSE,9.2,-,N/A,,Clear,160,2013-01-27 01:55:00
8:15 PM,10.6,1.4,67,30.04,10.0,SSE,8.1,-,N/A,,Clear,160,2013-01-27 02:15:00
8:35 PM,10.2,1.4,68,30.03,10.0,SSE,8.1,-,N/A,,Clear,160,2013-01-27 02:35:00
8:55 PM,10.0,1.6,69,30.03,10.0,SSE,8.1,-,N/A,,Clear,160,2013-01-27 02:55:00
9:15 PM,9.9,1.6,69,30.03,10.0,SSE,6.9,-,N/A,,Clear,150,2013-01-27 03:15:00
9:35 PM,9.0,1.4,71,30.04,10.0,Calm,Calm,-,N/A,,Clear,0,2013-01-27 03:35:00
9:55 PM,8.4,1.0,72,30.03,10.0,SE,4.6,-,N/A,,Clear,130,2013-01-27 03:55:00
10:15 PM,7.9,0.5,72,30.03,10.0,ESE,4.6,-,N/A,,Scattered Clouds,110,2013-01-27 04:15:00
10:35 PM,8.4,1.2,73,30.02,10.0,ESE,4.6,-,N/A,,Scattered Clouds,110,2013-01-27 04:35:00
10:55 PM,7.9,1.0,74,30.02,10.0,ESE,4.6,-,N/A,,Clear,120,2013-01-27 04:55:00
11:15 PM,7.3,0.9,75,30.02,10.0,SE,4.6,-,N/A,,Clear,130,2013-01-27 05:15:00
11:35 PM,7.7,1.4,75,30.03,10.0,SE,4.6,-,N/A,,Clear,140,2013-01-27 05:35:00
11:55 PM,6.4,0.3,76,30.03,10.0,SE,3.5,-,N/A,,Clear,130,2013-01-27 05:55:00